Weather in Alor Setar

Malaysia     6°07′02″N   100°22′11″E
В апреле 2022 года жителям России запретили посещать сайт meteo.paraplan.net по решению Генеральной прокуратуры. Аудитория сайта уменьшилась в 10 раз. Владельцы сайта не видят смысла в поддержке погодного сервера в таких условиях. Сайт будет закрыт в октябре.
temp.,
°C
wind,
m/s
gust,
m/s
humid.,
%
clouds,
%
prec.,
mm/h
press.,
hPa
HPBL,
m
3 october, mon
mon323:00+29w347255 0.9 1009803
02:00+28wnw347697 5.6 1008460
05:00+27w1275100 3.1 1007157
08:00+27s0177100 6.1 1009101
11:00+27ene1176100 1.5 1009304
14:00+27wsw1175100 4.4 1008122
17:00+27ne2274100 1.5 1006391
20:00+27nne3376100 1.5 1008335
4 october, tue
tue423:00+27nne2276100 0.0 1010396
02:00+26ene2278100 0.9 1009247
05:00+26e1177100 1.3 1008224
08:00+26s2279100 1.3 1009434
11:00+27s2278100 0.1 1011509
14:00+27sw2278100 0.1 1008506
17:00+27w227695 0.0 1006427
20:00+27nne2375100 0.1 1008425
5 october, wed
wed523:00+26e2385100 3.7 1010136
02:00+25s2290100 10.2 1009230
05:00+26sse2286100 0.8 1008291
08:00+26ese1182100 0.9 1010321
11:00+27s2276100 0.0 1012528
14:00+27wsw337495 0.1 1009550
17:00+27sw3376100 0.1 1007603
20:00+26e2283100 2.2 1008199
6 october, thu
thu623:00+25se2291100 12.8 1011231
02:00+25se2288100 14.1 1009249
05:00+25sse1186100 0.3 1008276
08:00+25ese2285100 0.8 1009310
11:00+26ese2283100 0.1 1011285
14:00+27wsw1178100 0.1 1008331
17:00+27sw3376100 0.0 1007474
20:00+28sw2273100 0.1 1008464
7 october, fri
fri723:00+26e4489100 5.8 1010217
02:00+25s2392100 24.3 1009277
05:00+24ene3393100 22.4 1008282
08:00+25sse1185100 25.7 1010253
11:00+26s228198 0.7 1012354
14:00+27wsw3379100 2.5 1009555
17:00+27wsw3377100 0.1 1007671
20:00+26sse1185100 3.2 1009136